Location: Focicchia
(42.2496°N, 9.2935°E)
Time: 01:08:34
(UTC+00:00)

Daily predictions for brighter satellites

Satellite Brightness Start Highest point End
(mag) Time Altitude Azimuth Time Altitude Azimuth Time Altitude Azimuth
STARLINK-1303 4.1 00:05:53 50° NE 00:05:53 50° NE 00:08:45 10° NE
Cosmos 1570 Rocket 3.9 00:04:53 67° SSW 00:05:37 87° WNW 00:10:57 10° NNE
Cosmos 1709 Rocket 3.9 00:05:05 54° S 00:06:36 88° E 00:12:48 10° N
Cosmos 1763 Rocket 3.9 00:05:58 45° W 00:06:50 51° WNW 00:11:47 10° N
Cosmos 1400 Rocket 4.2 00:04:40 10° N 00:08:25 32° ENE 00:09:11 30° E
STARLINK-1312 4.0 00:09:12 54° NE 00:09:12 54° NE 00:12:15 10° NE
Cosmos 2227 Rocket 2.8 00:04:51 10° NW 00:10:04 39° WSW 00:10:10 39° WSW
Cosmos 2084 Rocket 3.7 00:09:46 10° NNW 00:14:14 71° NE 00:14:58 58° ESE
SL-16 R/B 3.7 00:10:23 15° SE 00:14:54 37° ENE 00:20:30 10° N
Cosmos 1758 Rocket 3.5 00:15:28 77° W 00:15:30 77° W 00:19:57 10° N
STARLINK-75 4.5 00:18:02 36° N 00:18:02 36° N 00:20:36 10° NE
STARLINK-48 4.2 00:19:05 45° E 00:19:05 45° E 00:21:58 10° ENE
IRAS Rocket 4.4 00:18:05 41° SE 00:20:01 71° ENE 00:25:32 10° N
STARLINK-1283 3.9 00:20:03 60° NW 00:20:18 62° NNW 00:24:24 10° NE
STARLINK-80 3.8 00:21:07 58° NNW 00:21:07 58° NNW 00:24:44 10° NE
STARLINK-1293 4.5 00:24:09 35° NNE 00:24:09 35° NNE 00:26:22 10° NE
CZ-4 R/B 4.4 00:19:43 10° N 00:24:10 43° WNW 00:24:50 40° W
SL-16 R/B 3.4 00:22:44 25° SE 00:24:14 29° ESE 00:29:02 10° NE
Cosmos 2208 Rocket 4.1 00:23:37 56° SW 00:24:38 72° WNW 00:30:00 10° NNE
STARLINK-1255 4.5 00:25:54 35° N 00:25:54 35° N 00:28:10 10° NE
STARLINK-22 4.3 00:26:16 38° N 00:26:16 38° N 00:28:50 10° NE
STARLINK-1297 3.9 00:26:32 54° NNW 00:26:32 54° NNW 00:29:51 10° NE
Cosmos 2285 Rocket 4.0 00:23:51 10° NNW 00:30:10 67° WSW 00:31:55 47° SSW
MOZ.5/SAFIR/RUBIN 5/SL-8 4.4 00:29:16 34° SE 00:30:51 49° ENE 00:35:21 10° N
USA 81 4.2 00:30:17 50° WSW 00:31:11 57° W 00:36:24 10° N
USA 215 3.1 00:28:06 21° SE 00:32:47 76° SW 00:39:22 10° NW
CZ-2D R/B 2.9 00:28:32 10° NNE 00:33:26 40° E 00:35:02 32° SE
Cosmos 1953 Rocket 3.4 00:33:32 77° S 00:33:52 89° W 00:38:17 10° N
Cosmos-2242 2.9 00:30:11 10° NNW 00:34:23 68° W 00:34:23 68° W
Meteor 2-10 Rocket 3.9 00:30:04 10° NNW 00:34:53 44° W 00:35:16 43° WSW
Cosmos 2221 4.3 00:33:25 10° NNE 00:37:09 27° ENE 00:39:27 17° ESE
STARLINK-1310 4.3 00:37:58 41° ESE 00:37:58 41° ESE 00:41:20 10° ENE
STARLINK-1029 4.1 00:39:04 43° NNE 00:39:04 43° NNE 00:41:25 10° NE
STARLINK-34 4.2 00:40:01 38° N 00:40:01 38° N 00:42:25 10° NE
CZ-4C R/B 4.3 00:38:34 35° SE 00:40:02 50° ENE 00:44:21 10° N
GP-B 3.2 00:37:45 10° N 00:42:11 67° E 00:42:59 54° SE
STARLINK-1319 4.1 00:42:43 47° ESE 00:42:43 47° ESE 00:46:20 10° ENE
Cosmos 540 Rocket 3.9 00:41:07 41° WSW 00:42:20 50° WNW 00:47:19 10° N
STARLINK-1272 4.2 00:42:02 38° NW 00:42:25 40° NNW 00:45:46 10° NE
STARLINK-62 4.2 00:43:45 38° N 00:43:45 38° N 00:46:14 10° NE
Cosmos 2360 Rocket 4.1 00:43:57 14° SE 00:46:39 19° E 00:50:26 10° ENE
STARLINK-1277 3.9 00:47:31 53° ESE 00:47:31 53° ESE 00:51:20 10° ENE
STARLINK-1307 4.4 00:46:48 35° WNW 00:47:34 40° NNW 00:51:06 10° NE
Helios 1B rocket 4.1 00:46:34 10° NNW 00:49:51 23° WNW 00:50:24 22° W
STARLINK-1276 3.7 00:52:19 59° SE 00:52:19 59° SE 00:56:22 10° ENE
Cosmos 1980 Rocket 2.7 00:51:50 34° WSW 00:53:48 49° WNW 00:59:18 10° NNE
Cosmos 2074 Rocket 4.0 00:51:22 38° S 00:53:57 82° E 01:00:16 10° N
STARLINK-1305 3.6 00:57:05 64° SSE 00:57:13 65° SE 01:01:19 10° ENE
STARLINK-1306 3.5 00:57:24 67° SSE 00:57:39 70° SE 01:01:51 10° ENE
Cosmos 1455 4.1 00:58:10 10° NW 01:00:05 18° WNW 01:00:05 18° WNW
STARLINK-1262 3.5 01:01:53 67° S 01:02:13 71° SE 01:06:21 10° ENE
CZ-4B R/B 4.1 00:57:11 10° NNE 01:02:21 53° E 01:04:34 32° SSE
Meteor 1-11 4.3 01:03:54 41° SW 01:05:43 62° WNW 01:11:16 10° N
STARLINK-1300 3.5 01:06:40 65° SSW 01:07:11 78° SE 01:11:20 10° NE
Lacrosse 4 Rocket 3.8 01:07:02 10° WNW 01:07:20 11° WNW 01:07:20 11° WNW
ADEOS II 3.3 01:06:42 10° NNE 01:11:29 34° E 01:14:40 18° SSE
STARLINK-1295 3.5 01:11:26 60° SW 01:12:08 85° SE 01:16:18 10° NE
NOSS 2-1 (C) 2.7 01:12:04 80° WSW 01:12:14 85° NW 01:15:45 10° NE
Cosmos 2263 Rocket 2.1 01:06:46 10° NNW 01:12:24 89° WSW 01:15:58 23° SSE
UNK 3.6 01:11:40 42° S 01:13:14 83° WSW 01:17:50 10° NNW
Timation 1 Rocket 4.4 01:08:04 10° NNW 01:13:54 57° WSW 01:16:19 34° S
IRS-1D 4.3 01:09:45 10° NNE 01:14:49 47° E 01:17:31 25° SSE
STARLINK-64 3.8 01:14:12 42° WNW 01:14:56 51° NNW 01:18:28 10° NE
SL-4 R/B 2.7 01:10:54 10° NW 01:15:44 67° NNE 01:20:22 10° ESE
AQUA 3.9 01:11:45 10° NNE 01:16:31 69° ESE 01:18:24 36° S
STARLINK-1287 3.5 01:16:12 54° SW 01:17:06 88° NW 01:21:17 10° NE
NOSS 2-1 (D) 2.8 01:16:50 67° W 01:17:08 73° NW 01:20:39 10° NNE
USA 229 DEB 3.9 01:10:45 10° NW 01:18:06 86° NE 01:25:47 10° SE
USA 229 3.9 01:10:51 10° NW 01:18:13 86° NE 01:25:54 10° SE
NOSS 3-1 (C) 4.1 01:11:21 10° NW 01:19:03 87° SW 01:27:49 10° SSE
Cosmos 2184 Rocket 4.0 01:16:26 35° SSW 01:19:07 67° W 01:25:17 10° N
NPP 3.6 01:15:05 10° NNE 01:20:31 89° WNW 01:22:54 35° SSW
ARIANE 5 R/B 4.3 01:17:06 10° NE 01:21:09 24° E 01:25:02 11° SSE
CZ-4C R/B 4.4 01:18:14 10° WNW 01:22:03 19° NNW 01:26:19 10° NNE
Cosmos 1892 3.3 01:21:53 35° SSE 01:23:07 51° E 01:26:48 10° NNE
BREEZE-M DEB (TANK) 3.4 01:23:13 25° NNW 01:23:30 26° NNW 01:25:46 10° NE
STARLINK-1299 3.9 01:24:06 37° WSW 01:25:36 67° NW 01:29:52 10° NE
STARLINK-1302 3.6 01:25:46 42° WSW 01:27:04 75° NW 01:31:13 10° NE
NOSS 3-1 (A) 4.3 01:19:33 10° NNW 01:27:12 75° NE 01:35:55 10° SE
Cosmos 1610 Rocket 4.4 01:24:10 30° S 01:27:24 86° W 01:33:37 10° N
BREEZE-M DEB (TANK) 4.0 01:26:44 10° NW 01:28:32 18° N 01:30:28 10° ENE
STARLINK-24 4.3 01:28:48 34° SSE 01:29:28 36° SE 01:33:10 10° ENE
Cosmos 1869 3.1 01:27:51 10° N 01:31:44 85° W 01:33:00 41° S
STARLINK-1273 3.7 01:30:32 37° WSW 01:32:02 69° NW 01:36:11 10° NE
Cosmos 2322 Rocket 2.1 01:29:42 33° SSW 01:32:23 87° ESE 01:38:02 10° NNE
In-Cosmos 22 Rocket 4.2 01:31:01 27° S 01:34:08 80° E 01:39:39 10° NNE
STARLINK-1288 3.9 01:35:19 33° WSW 01:37:01 64° NNW 01:41:09 10° NE
STARLINK-61 3.4 01:35:51 42° WSW 01:37:06 81° NW 01:41:02 10° NE
STARLINK-81 4.0 01:38:56 35° SSE 01:39:34 39° SE 01:42:58 10° ENE
STARLINK-54 3.8 01:40:39 39° S 01:41:21 45° SE 01:44:48 10° ENE
Cosmos 1076 Rocket 3.5 01:39:51 32° S 01:41:50 87° E 01:46:14 10° N
STARLINK-1308 4.0 01:40:08 29° W 01:42:04 58° NNW 01:46:10 10° NE
Resurs 1-4 Rocket 2.6 01:37:16 10° N 01:42:22 48° WNW 01:44:54 27° SW
STARLINK-77 3.9 01:42:03 36° S 01:42:48 42° SE 01:46:15 10° ENE
Cosmos 2151 4.3 01:40:30 14° SSE 01:43:40 36° E 01:47:38 10° NNE
Cosmos 1400 Rocket 4.5 01:41:40 10° NW 01:44:38 19° W 01:44:45 19° W
H-2A R/B 4.4 01:42:27 10° ESE 01:46:02 24° ENE 01:49:40 10° NNE
Cosmos 1125 Rocket 3.7 01:41:20 10° NNW 01:46:20 48° WSW 01:48:54 26° SSW
STARLINK-79 3.7 01:46:45 37° S 01:47:41 47° SE 01:51:11 10° ENE
Cosmos 962 Rocket 4.5 01:44:45 21° S 01:49:05 84° E 01:55:19 10° N
STARLINK-78 3.7 01:48:20 37° S 01:49:19 49° SE 01:52:50 10° ENE
STARLINK-1017 4.4 01:47:56 28° S 01:49:23 39° SE 01:53:15 10° ENE
STARLINK-52 4.1 01:46:20 10° NW 01:49:26 46° NNE 01:52:32 10° ESE
STARLINK-57 3.5 01:49:58 38° SSW 01:51:00 54° SE 01:54:33 10° ENE
Cosmos 1408 2.8 01:49:31 28° S 01:51:20 68° E 01:54:59 10° NNE
STARLINK-1304 4.2 01:49:41 23° W 01:52:01 50° NNW 01:56:05 10° NE
STARLINK-49 3.6 01:51:26 36° SSW 01:52:31 52° SE 01:56:04 10° ENE
Cosmos 2154 Rocket 4.2 01:49:52 25° SSW 01:53:28 57° WNW 01:59:36 10° N
STARLINK-27 3.5 01:53:02 36° SSW 01:54:11 55° SE 01:57:44 10° ENE
STARLINK-1023 4.3 01:52:43 28° S 01:54:20 42° SE 01:58:16 10° ENE
GEOS 3 Rocket 3.5 01:50:23 10° SE 01:55:33 82° SW 02:00:52 10° NW
STARLINK-74 3.5 01:54:35 35° SSW 01:55:48 56° SE 01:59:22 10° ENE
STARLINK-39 3.4 01:56:10 35° SSW 01:57:26 59° SE 02:01:01 10° ENE
Cosmos 1825 2.8 01:55:27 19° SSE 01:57:55 52° E 02:01:35 10° NNE
Cosmos 2237 4.3 01:54:30 23° SSW 01:58:13 77° ESE 02:03:58 10° NNE
SL-16 R/B 3.1 01:55:29 24° SW 01:58:27 36° W 02:04:07 10° NNW
STARLINK-31 3.4 01:57:45 34° SSW 01:59:05 62° SE 02:02:41 10° ENE
STARLINK-1007 4.1 01:57:32 28° SSW 01:59:20 47° SE 02:03:19 10° ENE
SL-08 R/B 3.5 01:55:45 10° SSE 02:00:21 69° ENE 02:04:57 10° N
STARLINK-69 3.2 01:59:20 34° SW 02:00:44 70° SE 02:04:19 10° ENE
STARLINK-21 3.3 02:00:55 33° SSW 02:02:22 67° SE 02:05:58 10° ENE
STARLINK-45 3.2 02:02:35 32° SW 02:04:08 77° SE 02:07:46 10° NE
STARLINK-1048 4.0 02:02:18 27° SSW 02:04:16 52° SE 02:08:18 10° ENE
IRS-P3 4.1 02:00:34 10° NNE 02:05:55 86° WNW 02:09:52 19° SSW
Cosmos 1844 Rocket 3.4 02:01:24 10° NNW 02:06:55 55° ENE 02:12:21 10° SE
STARLINK-76 3.2 02:05:36 30° SW 02:07:15 75° SE 02:10:52 10° NE
STARLINK-70 3.2 02:05:59 29° SW 02:07:43 80° SE 02:11:23 10° NE
SL-16 R/B 2.9 02:04:36 20° WSW 02:08:08 42° WNW 02:13:30 10° NNE
STARLINK-23 3.2 02:07:10 29° SW 02:08:52 78° SE 02:12:30 10° NE
STARLINK-1049 3.9 02:07:06 25° SSW 02:09:15 57° SE 02:13:19 10° ENE
STARLINK-32 3.2 02:08:37 29° SW 02:10:20 80° SE 02:13:55 10° NE
STARLINK-40 3.2 02:10:18 27° SW 02:12:07 83° SE 02:15:46 10° NE
COSMOS 2428 4.2 02:07:50 10° SSE 02:12:42 30° ESE 02:17:35 10° NE
CZ-2D R/B 3.4 02:08:59 10° N 02:13:17 27° WNW 02:16:21 16° WSW
STARLINK-44 3.2 02:11:49 26° SW 02:13:42 86° SE 02:17:20 10° NE
STARLINK-1051 3.8 02:11:51 24° SSW 02:14:11 63° SE 02:18:18 10° ENE
Cosmos 2221 3.7 02:11:00 10° NNW 02:14:37 26° W 02:16:17 20° WSW
Cosmos 773 Rocket 4.0 02:11:02 18° SSW 02:14:55 87° ESE 02:20:15 10° NNE
STARLINK-37 3.2 02:13:33 25° SW 02:15:32 85° NW 02:19:10 10° NE
USA 215 4.4 02:15:21 18° SW 02:16:26 19° WSW 02:20:51 10° W
STARLINK-36 3.2 02:14:56 25° SW 02:16:57 89° NNW 02:20:35 10° NE
STARLINK-60 3.5 02:14:23 10° WNW 02:17:19 35° SW 02:20:16 10° SSE
FALCON 9 DEB 3.9 02:15:23 10° NW 02:18:47 54° NNE 02:22:11 10° ESE
STARLINK-63 3.2 02:18:10 23° WSW 02:20:20 79° NW 02:23:56 10° NE
Cosmos 1315 Rocket 4.3 02:17:25 10° NW 02:20:20 20° W 02:21:25 18° WSW
BREEZE-M DEB (TANK) 4.0 02:22:47 10° SSE 02:22:47 10° SSE 02:22:53 10° SSE
STARLINK-35 3.2 02:19:32 22° WSW 02:21:41 81° NW 02:25:16 10° NE
STARLINK-51 3.3 02:21:14 21° WSW 02:23:29 78° NW 02:27:06 10° NE
Cosmos 2366 rocket 4.1 02:17:40 10° S 02:23:54 83° E 02:30:15 10° N
STARLINK-1028 3.6 02:21:25 21° SW 02:24:08 76° SE 02:28:16 10° NE
STARLINK-30 3.3 02:22:49 21° WSW 02:25:09 76° NW 02:28:48 10° NE
STARLINK-72 3.3 02:24:13 20° WSW 02:26:33 73° NW 02:30:07 10° NE
Shenzhou-11 Module 1.4 02:26:47 15° W 02:28:40 81° N 02:31:07 10° E
STARLINK-1021 3.6 02:26:14 19° SW 02:29:08 82° SE 02:33:17 10° NE
Cosmos 2058 4.3 02:27:00 17° WSW 02:29:13 25° WNW 02:32:45 10° NNW
STARLINK-59 3.4 02:27:25 18° WSW 02:29:55 65° NW 02:33:28 10° NE
Cosmos 2360 Rocket 2.4 02:25:44 17° SW 02:30:04 62° WNW 02:35:41 10° NNE
STARLINK-1010 3.6 02:28:17 18° SW 02:31:23 89° SE 02:35:39 10° NE
STARLINK-56 3.4 02:29:04 18° WSW 02:31:39 67° NW 02:35:17 10° NE
Cosmos 1933 4.3 02:28:03 10° N 02:31:58 48° ENE 02:35:51 10° SSE
STARLINK-73 3.5 02:30:38 17° WSW 02:33:18 64° NW 02:36:55 10° NE
STARLINK-1019 3.6 02:30:59 17° SW 02:34:04 89° S 02:38:14 10° NE
STARLINK-38 3.5 02:32:12 16° WSW 02:34:56 62° NW 02:38:32 10° NE
Cosmos 1328 Rocket 4.1 02:31:11 10° N 02:35:33 62° E 02:39:51 10° SSE
STARLINK-65 3.6 02:33:46 16° WSW 02:36:34 60° NNW 02:40:10 10° NE
STARLINK-68 3.7 02:34:23 15° WSW 02:37:16 56° NNW 02:40:53 10° NE
STARLINK-53 3.7 02:35:24 15° WSW 02:38:17 56° NNW 02:41:53 10° NE
STARLINK-1012 3.6 02:35:47 16° SW 02:39:04 84° NW 02:43:14 10° NE
BREEZE-M DEB (TANK) 4.2 02:35:22 13° SSW 02:39:32 29° SSE 02:42:18 10° E
STARLINK-50 3.7 02:37:26 14° WSW 02:40:34 61° NNW 02:44:20 10° NE
SL-24 DEB 4.4 02:38:43 10° N 02:43:14 57° W 02:47:44 10° SSW
Cosmos 2333 Rocket 2.5 02:37:57 10° S 02:43:32 66° ESE 02:49:10 10° NNE
Meteor 1-28 Rocket 3.4 02:41:15 10° S 02:44:54 51° W 02:48:34 10° NNW
STARLINK-71 4.0 02:41:45 12° WSW 02:45:19 56° NNW 02:49:18 10° NE
Landsat 5 3.8 02:41:39 10° SSE 02:46:09 78° ENE 02:50:37 10° N
Cosmos 2219 Rocket 2.5 02:42:08 10° SSW 02:47:39 66° ESE 02:53:12 10° NNE
STARLINK-1026 3.8 02:45:20 13° WSW 02:49:01 71° NW 02:53:10 10° NE
Cosmos 2322 3.8 02:43:31 11° SSW 02:49:02 80° WNW 02:54:49 10° NNE
STARLINK-29 3.4 02:47:13 10° WNW 02:50:10 36° SW 02:53:07 10° SSE
Cosmos 1727 Rocket 4.0 02:44:37 10° N 02:50:49 89° E 02:57:00 10° S
ADEOS II 3.1 02:46:31 10° N 02:51:05 31° WNW 02:55:36 10° SW
STARLINK-1013 3.8 02:50:08 11° WSW 02:54:01 66° NNW 02:58:09 10° NE
ERS-2 2.4 02:51:00 10° S 02:54:31 45° W 02:58:03 10° NNW
IDEFIX/ARIANE 42P 2.6 02:49:35 10° NNE 02:54:53 85° WNW 03:00:08 10° SSW
SL-4 R/B 3.2 02:51:13 10° WNW 02:55:10 26° SW 02:58:56 10° S
Cosmos 2263 Rocket 4.0 02:53:42 10° WNW 02:55:24 11° W 02:57:05 10° WSW
Cosmos 1606 2.7 02:52:20 10° NNW 02:56:05 65° W 02:59:50 10° S
STARLINK-25 4.1 02:53:48 10° WSW 02:57:05 40° NNW 03:00:23 10° NE
ATLAS 5 CENTAUR R/B 3.0 02:54:31 10° S 02:58:06 30° ESE 03:01:57 10° NE
Cosmos 2333 4.3 02:52:54 10° SSW 02:58:28 71° WNW 03:04:07 10° NNE
STARLINK-1329 4.5 02:54:47 10° NW 02:58:45 53° NNE 03:02:43 10° ESE
STARLINK-1009 3.9 02:54:54 10° WSW 02:59:00 61° NNW 03:03:07 10° NE
BREEZE-M R/B 3.2 02:57:25 10° NW 03:00:22 42° NNE 03:02:40 10° E
ARIANE 5 R/B 3.1 02:55:44 10° N 03:00:23 39° WNW 03:04:59 10° SW
Cosmos 1500 Rocket 4.5 02:57:32 10° SSE 03:01:51 51° E 03:06:11 10° NNE
STARLINK-1362 4.3 02:59:19 10° NW 03:03:19 57° NNE 03:07:17 10° ESE
STARLINK-1015 4.1 02:59:55 10° WSW 03:03:58 56° NNW 03:08:04 10° NE
STARLINK-1320 3.1 03:01:28 10° NW 03:04:35 76° NE 03:07:42 10° ESE
STARLINK-1322 3.0 03:01:49 10° NW 03:04:56 77° NE 03:08:03 10° ESE
CZ-2C R/B 2.8 03:01:20 10° N 03:05:05 64° WNW 03:08:54 10° SSW
STARLINK-1324 3.0 03:02:08 10° NW 03:05:15 78° NE 03:08:22 10° ESE
CZ-2D R/B 4.1 03:01:26 10° N 03:05:29 43° WNW 03:09:36 10° SW
STARLINK-1294 3.0 03:02:26 10° NW 03:05:35 78° NE 03:08:43 10° ESE
Cosmos 1408 Rocket 3.5 03:01:22 10° SSW 03:05:39 68° W 03:09:56 10° N
STARLINK-1261 3.0 03:02:49 10° NW 03:05:57 79° NE 03:09:03 10° SE
STARLINK-1325 3.0 03:03:11 10° NW 03:06:17 79° NE 03:09:24 10° SE
STARLINK-1333 3.0 03:03:32 10° NW 03:06:40 80° NE 03:09:47 10° SE
STARLINK-1334 3.0 03:03:49 10° NW 03:06:57 80° NE 03:10:03 10° SE
STARLINK-1326 3.0 03:04:09 10° NW 03:07:16 81° NE 03:10:23 10° SE
STARLINK-1323 3.0 03:04:32 10° NW 03:07:40 82° NE 03:10:46 10° SE
STARLINK-1373 4.2 03:03:47 10° NW 03:07:47 61° NNE 03:11:46 10° ESE
STARLINK-1349 2.9 03:04:50 10° NW 03:07:57 82° NNE 03:11:04 10° SE
STARLINK-1336 2.9 03:05:09 10° NW 03:08:16 83° NE 03:11:23 10° SE
STARLINK-1331 2.9 03:05:32 10° NW 03:08:39 84° NE 03:11:46 10° SE
STARLINK-1344 2.9 03:05:50 10° NW 03:08:57 84° NE 03:12:04 10° SE
STARLINK-1016 4.2 03:04:55 10° WSW 03:08:58 52° NNW 03:13:02 10° NE
STARLINK-1343 2.9 03:06:12 10° NW 03:09:20 85° NE 03:12:27 10° SE
STARLINK-1346 2.9 03:06:29 10° NW 03:09:39 85° NE 03:12:48 10° SE
STARLINK-1328 2.9 03:06:56 10° NW 03:10:04 86° NE 03:13:11 10° SE
STARLINK-1354 2.9 03:07:13 10° NW 03:10:21 87° NE 03:13:28 10° SE
Cosmos 1844 3.9 03:04:57 10° NNW 03:10:38 57° WSW 03:16:15 10° S
STARLINK-1347 2.9 03:07:30 10° NW 03:10:38 87° NE 03:13:45 10° SE
STARLINK-1357 2.9 03:07:56 10° NW 03:11:04 88° NE 03:14:10 10° SE
STARLINK-1335 2.9 03:08:14 10° NW 03:11:21 89° NE 03:14:28 10° SE
STARLINK-1327 2.9 03:08:34 10° NW 03:11:42 89° NNE 03:14:48 10° SE
STARLINK-1340 2.8 03:08:52 10° NW 03:11:59 90° NNW 03:15:06 10° SE
STARLINK-1356 2.8 03:09:15 10° NW 03:12:22 89° WSW 03:15:30 10° SE
STARLINK-1390 4.1 03:08:26 10° NW 03:12:29 66° NE 03:16:30 10° ESE
STARLINK-1345 2.8 03:09:34 10° NW 03:12:41 89° SW 03:15:47 10° SE
STARLINK-1355 2.8 03:09:55 10° NW 03:13:02 88° SW 03:16:09 10° SE
STARLINK-1321 2.8 03:10:16 10° NW 03:13:23 87° SW 03:16:31 10° SE
STARLINK-1358 2.8 03:10:39 10° NW 03:13:47 87° SW 03:16:53 10° SE
STARLINK-1008 4.3 03:09:57 10° WSW 03:13:59 48° NNW 03:18:01 10° NE
STARLINK-1332 2.8 03:10:56 10° NW 03:14:04 86° SSW 03:17:11 10° SE
STARLINK-1348 2.8 03:11:16 10° NW 03:14:25 86° SSW 03:17:31 10° SE
STARLINK-1330 2.8 03:11:36 10° NW 03:14:44 85° SW 03:17:50 10° SE
Cosmos 1680 Rocket 4.0 03:09:39 10° S 03:14:50 65° ESE 03:20:05 10° NNE
STARLINK-1363 2.8 03:11:56 10° NW 03:15:04 84° SSW 03:18:11 10° SE
Meteor 2-3 Rocket 3.8 03:11:57 10° SSW 03:17:32 70° W 03:23:07 10° N
Cosmos 2344 3.8 03:12:19 10° SSW 03:19:50 72° ESE 03:27:38 10° NE
